Location: Bruderhein
(53.8035°N, 112.9265°W)
Time: 14:29:19
(UTC+00:00)

RS-15 - Pass Details

Date: 02 April 2023
Orbit: 1885 x 2159 km, 64.8° (Epoch: 01 June)

Event Time Altitude Azimuth Distance (km) Brightness Sun altitude
Rises 08:55:27 0° 320° (NW) 5,633 10.8 -29.0°
Reaches altitude 10° 08:59:25 10° 312° (NW) 4,596 10.1 -28.7°
Maximum altitude 09:09:11 32° 256° (WSW) 3,082 8.7 -28.1°
Enters shadow 09:09:55 32° 250° (WSW) 3,086 8.6 -28.1°
